OE-11061 Weather Reports


time (UTC)temp
C
wind
direction
speed
KPH
gust
KPH
rain 1hr
cm
rain 24hr
cm
rain mn
cm
humidity
%
barometer
mb
20260903055521 15 68 3.2 3.2 0.00 0.00 0.00 83 1022.5
20260903054134 15 60 3.2 6.4 0.00 0.00 0.00 84 1022.6
20260903053521 14 55 3.2 4.8 0.00 0.00 0.00 85 1022.6
20260903052522 13 74 1.6 3.2 0.00 0.00 0.00 86 1022.7
20260903051135 13 81 1.6 3.2 0.00 0.00 0.00 86 1022.7
20260903050521 13 72 1.6 3.2 0.00 0.00 0.00 86 1022.6
20260903045522 13 78 1.6 3.2 0.00 0.00 0.00 86 1022.5
20260903044134 13 102 0.0 1.6 0.00 0.00 0.00 86 1022.5
20260903043521 13 346 0.0 1.6 0.00 0.00 0.00 85 1022.5
20260903042522 14 255 1.6 4.8 0.00 0.00 0.00 84 1022.4
20260903041134 14 304 0.0 3.2 0.00 0.00 0.00 83 1022.4
20260903040522 15 151 1.6 4.8 0.00 0.00 0.00 83 1022.1
20260903035522 15 165 1.6 6.4 0.00 0.00 0.00 85 1022.1
20260903034521 15 133 1.6 4.8 0.00 0.00 0.00 84 1022.1
20260903033522 15 170 3.2 6.4 0.00 0.00 0.00 86 1022.0
20260903032522 15 120 3.2 4.8 0.00 0.00 0.00 87 1022.1
20260903031135 15 103 3.2 4.8 0.00 0.00 0.00 88 1022.0
20260903030522 15 113 1.6 4.8 0.00 0.00 0.00 88 1022.0
20260903025522 15 115 1.6 4.8 0.00 0.00 0.00 90 1022.0
20260903024522 15 197 1.6 4.8 0.00 0.00 0.00 90 1021.9
20260903023522 15 143 1.6 3.2 0.00 0.00 0.00 89 1021.9
20260903022522 15 124 1.6 3.2 0.00 0.00 0.00 89 1021.7
20260903021134 15 118 1.6 3.2 0.00 0.00 0.00 89 1021.6
20260903020522 16 122 0.0 4.8 0.00 0.00 0.00 89 1021.7
20260903015522 16 246 0.0 3.2 0.00 0.00 0.00 87 1021.6
20260903014134 16 360 0.0 3.2 0.00 0.00 0.00 87 1021.6
20260903013521 16 107 1.6 3.2 0.00 0.00 0.00 87 1021.6
20260903012521 15 95 1.6 3.2 0.00 0.00 0.00 88 1021.5
20260903011135 15 102 1.6 4.8 0.00 0.00 0.00 88 1021.4
20260903010522 16 129 0.0 3.2 0.00 0.00 0.00 88 1021.4
20260903005522 16 344 1.6 4.8 0.00 0.00 0.00 87 1021.5
20260903004135 16 321 3.2 4.8 0.00 0.00 0.00 87 1021.3
20260903003522 15 280 0.0 3.2 0.00 0.00 0.00 88 1021.3
20260903002522 16 122 1.6 3.2 0.00 0.00 0.00 88 1021.3
20260903001534 16 360 0.0 4.8 0.00 0.00 0.00 87 1021.3
20260903000521 15 108 1.6 4.8 0.00 0.00 0.00 88 1021.3
20260902235521 15 119 1.6 4.8 0.00 0.00 0.00 88 1021.4
20260902234135 15 98 1.6 6.4 0.00 0.00 0.00 87 1021.4
20260902233521 15 102 4.8 6.4 0.00 0.00 0.00 89 1021.4
20260902232521 15 104 3.2 4.8 0.00 0.00 0.00 90 1021.5
20260902231522 15 84 3.2 4.8 0.00 0.00 0.00 89 1021.5
20260902230521 15 8 1.6 3.2 0.00 0.00 0.00 88 1021.4
20260902225522 15 223 4.8 6.4 0.00 0.00 0.00 88 1021.4
20260902224135 16 81 1.6 6.4 0.00 0.00 0.00 86 1021.3
20260902223522 15 71 6.4 8.0 0.00 0.00 0.00 88 1021.3
20260902222522 16 81 4.8 8.0 0.00 0.00 0.00 87 1021.3
20260902221135 16 107 3.2 4.8 0.00 0.00 0.00 86 1021.2
20260902220521 16 140 3.2 6.4 0.00 0.00 0.00 85 1021.1
20260902215522 16 129 3.2 4.8 0.00 0.00 0.00 84 1021.0
20260902214135 16 141 1.6 4.8 0.00 0.00 0.00 83 1020.9
20260902213521 16 129 0.0 3.2 0.00 0.00 0.00 84 1020.9
20260902211135 16 33 1.6 3.2 0.00 0.00 0.00 80 1020.8
20260902210522 16 47 3.2 4.8 0.00 0.00 0.00 79 1020.8
20260902205522 16 83 3.2 4.8 0.00 0.00 0.00 82 1020.7
20260902204136 16 92 3.2 4.8 0.00 0.00 0.00 80 1020.6
20260902203521 16 107 4.8 6.4 0.00 0.00 0.00 81 1020.7
20260902202522 17 107 1.6 3.2 0.00 0.00 0.00 79 1020.8
20260902201135 17 205 0.0 3.2 0.00 0.00 0.00 76 1020.7
20260902200522 17 231 0.0 4.8 0.00 0.00 0.00 76 1020.7
20260902195522 18 349 1.6 3.2 0.00 0.00 0.00 70 1020.6
20260902194135 18 39 0.0 1.6 0.00 0.00 0.00 71 1020.4
20260902193522 18 76 3.2 8.0 0.00 0.00 0.00 70 1020.2
20260902192521 18 60 0.0 6.4 0.00 0.00 0.00 69 1020.1
20260902191135 19 26 1.6 4.8 0.00 0.00 0.00 67 1020.1
20260902190521 19 68 3.2 6.4 0.00 0.00 0.00 67 1020.0
20260902185522 18 83 4.8 11.3 0.00 0.00 0.00 72 1019.9
20260902184135 18 64 8.0 11.3 0.00 0.00 0.00 75 1019.8
20260902183522 19 59 1.6 9.7 0.00 0.00 0.00 71 1019.6
20260902182522 20 38 1.6 4.8 0.00 0.00 0.00 67 1019.4
20260902181135 20 55 3.2 6.4 0.00 0.00 0.00 67 1019.3
20260902180522 20 63 4.8 8.0 0.00 0.00 0.00 67 1019.2
20260902175522 20 59 3.2 6.4 0.00 0.00 0.00 66 1019.0
20260902174135 21 50 3.2 6.4 0.00 0.00 0.00 66 1018.7
20260902173521 21 37 3.2 4.8 0.00 0.00 0.00 65 1018.9
20260902172522 21 55 4.8 8.0 0.00 0.00 0.00 64 1018.8
20260902171135 21 55 4.8 8.0 0.00 0.00 0.00 64 1018.6
20260902170522 22 31 3.2 6.4 0.00 0.00 0.00 60 1018.5
20260902165522 22 353 3.2 11.3 0.00 0.00 0.00 52 1018.4
20260902164135 23 339 4.8 9.7 0.00 0.00 0.00 51 1018.6
20260902163522 23 310 3.2 8.0 0.00 0.00 0.00 51 1018.6
20260902162522 23 290 3.2 6.4 0.00 0.00 0.00 50 1018.4
20260902161135 23 291 4.8 8.0 0.00 0.00 0.00 50 1018.4
20260902160521 23 290 4.8 11.3 0.00 0.00 0.00 53 1018.3
20260902155522 24 300 3.2 8.0 0.00 0.00 0.00 48 1018.2
20260902154135 24 19 1.6 6.4 0.00 0.00 0.00 44 1018.4
20260902153522 24 289 4.8 12.9 0.00 0.00 0.00 48 1018.4
20260902152521 24 302 6.4 9.7 0.00 0.00 0.00 48 1018.5
20260902151135 24 332 4.8 14.5 0.00 0.00 0.00 49 1018.5
20260902150522 24 315 6.4 11.3 0.00 0.00 0.00 46 1018.5
20260902145522 25 304 6.4 17.7 0.00 0.00 0.00 45 1018.5
20260902144135 25 332 8.0 16.1 0.00 0.00 0.00 44 1018.5
20260902143521 25 314 8.0 16.1 0.00 0.00 0.00 43 1018.6
20260902142522 25 293 12.9 20.9 0.00 0.00 0.00 45 1018.5
20260902141135 26 280 8.0 17.7 0.00 0.00 0.00 45 1018.5
20260902140522 25 268 4.8 12.9 0.00 0.00 0.00 44 1018.6
20260902135522 25 301 6.4 16.1 0.00 0.00 0.00 46 1018.7
20260902134133 25 287 6.4 16.1 0.00 0.00 0.00 44 1018.7
20260902133522 25 314 6.4 17.7 0.00 0.00 0.00 44 1018.8
20260902132522 25 340 4.8 14.5 0.00 0.00 0.00 44 1018.8
20260902131135 25 331 4.8 12.9 0.00 0.00 0.00 47 1018.9
20260902130522 25 273 4.8 9.7 0.00 0.00 0.00 51 1019.0
20260902125522 24 284 6.4 14.5 0.00 0.00 0.00 47 1019.3
20260902124134 25 309 4.8 11.3 0.00 0.00 0.00 50 1019.2
20260902123522 24 245 3.2 9.7 0.00 0.00 0.00 48 1019.2
20260902122522 23 95 3.2 6.4 0.00 0.00 0.00 48 1019.5
20260902121135 23 308 1.6 9.7 0.00 0.00 0.00 48 1019.6
20260902120521 23 271 3.2 9.7 0.00 0.00 0.00 48 1019.6
20260902115521 23 340 1.6 8.0 0.00 0.00 0.00 52 1019.7
20260902114135 23 59 1.6 6.4 0.00 0.00 0.00 48 1019.8
20260902113522 23 281 1.6 6.4 0.00 0.00 0.00 52 1019.8
20260902112522 23 267 3.2 6.4 0.00 0.00 0.00 51 1019.9
20260902111135 23 267 3.2 8.0 0.00 0.00 0.00 50 1019.9
20260902110522 23 276 3.2 8.0 0.00 0.00 0.00 51 1020.1
20260902105521 23 219 1.6 11.3 0.00 0.00 0.00 51 1020.2
20260902104135 23 232 3.2 8.0 0.00 0.00 0.00 54 1020.3
20260902103522 22 182 3.2 8.0 0.00 0.00 0.00 53 1020.6
20260902102521 22 156 3.2 9.7 0.00 0.00 0.00 52 1020.4
20260902101135 23 140 3.2 9.7 0.00 0.00 0.00 51 1020.5
20260902100522 22 254 3.2 8.0 0.00 0.00 0.00 54 1020.5
20260902095522 23 272 4.8 9.7 0.00 0.00 0.00 60 1020.6
20260902094135 22 253 4.8 11.3 0.00 0.00 0.00 61 1020.6
20260902093522 22 229 4.8 11.3 0.00 0.00 0.00 60 1020.7
20260902092522 22 235 1.6 9.7 0.00 0.00 0.00 63 1020.7
20260902091134 22 144 1.6 8.0 0.00 0.00 0.00 62 1020.8
20260902090522 21 139 0.0 6.4 0.00 0.00 0.00 61 1021.0
20260902084134 20 225 4.8 8.0 0.00 0.00 0.00 68 1021.3
20260902083522 20 209 3.2 6.4 0.00 0.00 0.00 66 1021.4
20260902082522 20 234 3.2 6.4 0.00 0.00 0.00 65 1021.4
20260902081134 20 238 3.2 8.0 0.00 0.00 0.00 70 1021.4
20260902080522 19 220 3.2 6.4 0.00 0.00 0.00 72 1021.5
20260902075522 19 246 3.2 6.4 0.00 0.00 0.00 68 1021.5
20260902074135 18 154 3.2 8.0 0.00 0.00 0.00 69 1021.6
20260902073521 18 143 4.8 9.7 0.00 0.00 0.00 72 1021.8
20260902072522 17 145 6.4 12.9 0.00 0.00 0.00 73 1021.6
20260902071335 17 137 6.4 9.7 0.00 0.00 0.00 75 1021.7
20260902070521 16 134 8.0 14.5 0.00 0.00 0.00 79 1021.8
20260902065521 15 126 1.6 6.4 0.00 0.00 0.00 82 1022.0
20260902064135 15 161 0.0 4.8 0.00 0.00 0.00 88 1022.1
20260902062522 13 219 1.6 3.2 0.00 0.00 0.00 91 1022.4
20260902061135 13 357 1.6 3.2 0.00 0.00 0.00 92 1022.4
20260902060522 12 360 1.6 3.2 0.00 0.00 0.00 93 1022.5